Home > Weather > Barrow > Past weeks

Flag for USA Past Weather in Barrow, Alaska, USA — Yesterday and Last 2 Weeks

Now
41 °F

Low clouds.


Feels Like: 36 °F
Forecast: 34 / 38 °F
Wind: 7 mph from North

Location: Post Rogers Memorial Airport

Current Time: Jul 28, 2016 at 12:23:43 PM

Latest Report: Jul 28, 2016 at 11:53 AM


Visibility: 10 mi

Pressure: 29.62 "Hg

Humidity: 82%

Dew Point: 36 °F

Location of BarrowLocation

Past Weather in Barrow — Graph

°F

Barrow Temperature Yesterday

Maximum temperature yesterday: 52 °F (at 8:53 AM)
Minimum temperature yesterday: 40 °F (at 6:53 PM)
Average temperature yesterday: 44 °F

High & Low Weather Summary for the Past Weeks

 TemperatureHumidityPressure
High66 °F (Jul 13, 12:53 PM)93% (Jul 14, 5:53 AM)30.22 "Hg (Jul 14, 5:53 AM)
Low30 °F (Jul 20, 4:56 AM)56% (Jul 13, 12:53 PM)29.53 "Hg (Jul 27, 2:53 PM)
Average42 °F80%29.91 "Hg
* Reported Jul 13 10:53 AM — Jul 28 10:53 AM, Barrow, Weather by CustomWeather, © 2016

Note: Actual official high and low records may vary slightly from our data, if they occured in-between our weather recording intervals... More about our weather records

Advertising

Barrow Weather History for the Previous 24 Hours

Scroll right to see more
 ConditionsComfort  
Time TempWeatherWind HumidityBarometerVisibility
10:53 AM
Thu, Jul 28
40 °FLight rain. Low clouds.8 mph86%29.62 "Hg10 mi
9:53 AM40 °FLight rain. Low clouds.9 mph86%29.61 "Hg8 mi
8:53 AM40 °FLight rain. Mostly cloudy.10 mph86%29.59 "Hg8 mi
7:53 AM40 °FLight rain. Low clouds.10 mph86%29.59 "Hg8 mi
6:53 AM40 °FLight rain. Mostly cloudy.10 mph86%29.59 "Hg10 mi
5:53 AM41 °FLight rain. Low clouds.8 mph86%29.60 "Hg8 mi
4:53 AM41 °FMostly cloudy.7 mph82%29.60 "Hg10 mi
3:53 AM40 °FLight rain. Low clouds.5 mph86%29.61 "Hg10 mi
2:53 AM40 °FLow clouds.3 mph86%29.62 "Hg10 mi
1:53 AM40 °FLow clouds.No wind86%29.63 "Hg10 mi
12:53 AM40 °FLow clouds.3 mph86%29.63 "Hg10 mi
11:53 PM
Wed, Jul 27
40 °FLow clouds.5 mph86%29.63 "Hg10 mi
10:53 PM40 °FLow clouds.5 mph86%29.63 "Hg10 mi
9:53 PM40 °FLow clouds.8 mph86%29.62 "Hg10 mi
8:53 PM40 °FLow clouds.10 mph89%29.62 "Hg10 mi
7:53 PM40 °FLow clouds.13 mph86%29.61 "Hg10 mi
6:53 PM40 °FLow clouds.15 mph89%29.60 "Hg10 mi
5:53 PM41 °FLow clouds.13 mph86%29.58 "Hg10 mi
4:53 PM41 °FLight rain. Fog.13 mph89%29.56 "Hg2 mi
3:53 PM42 °FLight rain. Low clouds.13 mph89%29.55 "Hg10 mi
2:53 PM43 °FLight rain. Fog.5 mph89%29.53 "Hg4 mi
1:53 PM42 °FLight rain. Low clouds.5 mph89%29.54 "Hg7 mi
12:53 PM42 °FLight rain. Mostly cloudy.9 mph89%29.54 "Hg8 mi
Weather by CustomWeather, © 2016

See weather overviewHow to use our weather pages